,,,PA_Meas_PMT16A,,PR_Meas_QMR101_102,,RH_Meas_QMH101,,SR_Meas_QMS101,,TA_Meas_QMH101,,GenWind,,GenWind,
date,time,status,PA,status,PR,status,RH,status,SR,status,TA,status,DirAvg,status,SpdAvg,
2008-12-01, 00:00:04,VALID,1010.67,VALID,0,VALID,92.0886,VALID,0,VALID,23.8694,VALID,312,VALID,0.573828,
2008-12-01, 00:01:04,VALID,1010.66,VALID,0,VALID,92.1039,VALID,0,VALID,23.8694,VALID,324,VALID,0.375781,
2008-12-01, 00:02:04,VALID,1010.65,VALID,0,VALID,92.2945,VALID,0,VALID,23.8091,VALID,324,VALID,0.113281,
2008-12-01, 00:03:04,VALID,1010.67,VALID,0,VALID,92.4013,VALID,0,VALID,23.7896,VALID,324,VALID,0.000390625,
2008-12-01, 00:04:04,VALID,1010.67,VALID,0,VALID,92.5461,VALID,0,VALID,23.7914,VALID,332,VALID,0.502734,
2008-12-01, 00:05:04,VALID,1010.67,VALID,0,VALID,92.6605,VALID,0.105969,VALID,23.7507,VALID,342,VALID,0.402344,
2008-12-01, 00:06:04,VALID,1010.66,VALID,0,VALID,92.7749,VALID,0.105969,VALID,23.7312,VALID,343,VALID,0.0351563,
2008-12-01, 00:07:04,VALID,1010.64,VALID,0,VALID,92.8588,VALID,0,VALID,23.6922,VALID,343,VALID,0.1375,
2008-12-01, 00:08:04,VALID,1010.62,VALID,0,VALID,93.0037,VALID,0,VALID,23.6922,VALID,343,VALID,0,
2008-12-01, 00:09:04,VALID,1010.62,VALID,0,VALID,93.0647,VALID,0.105969,VALID,23.6922,VALID,340,VALID,0.155078,
2008-12-01, 00:10:04,VALID,1010.65,VALID,0,VALID,93.1105,VALID,0,VALID,23.6745,VALID,297,VALID,0.230078,
2008-12-01, 00:11:04,VALID,1010.66,VALID,0,VALID,93.0189,VALID,0,VALID,23.6745,VALID,352,VALID,0.372656,
2008-12-01, 00:12:04,VALID,1010.66,VALID,0,VALID,92.9808,VALID,0,VALID,23.694,VALID,352,VALID,0.247656,
2008-12-01, 00:13:04,VALID,1010.64,VALID,0,VALID,93.0494,VALID,0,VALID,23.6727,VALID,314,VALID,0.366797,
2008-12-01, 00:14:04,VALID,1010.63,VALID,0,VALID,93.0647,VALID,0,VALID,23.7117,VALID,310,VALID,0.0375,
2008-12-01, 00:15:04,VALID,1010.62,VALID,0,VALID,93.1181,VALID,0.105969,VALID,23.7135,VALID,310,VALID,0.294141,
2008-12-01, 00:16:04,VALID,1010.6,VALID,0,VALID,93.0647,VALID,0,VALID,23.7312,VALID,316,VALID,0.36875,
2008-12-01, 00:17:04,VALID,1010.59,VALID,0,VALID,93.0342,VALID,0.105969,VALID,23.7135,VALID,316,VALID,0.296875,
2008-12-01, 00:18:04,VALID,1010.56,VALID,0,VALID,93.0113,VALID,0,VALID,23.7117,VALID,316,VALID,0.408594,
2008-12-01, 00:19:04,VALID,1010.54,VALID,0,VALID,93.0342,VALID,0,VALID,23.6922,VALID,319,VALID,0.511719,
2008-12-01, 00:20:04,VALID,1010.56,VALID,0,VALID,93.0418,VALID,0,VALID,23.694,VALID,324,VALID,0.880078,
2008-12-01, 00:21:04,VALID,1010.54,VALID,0,VALID,93.1028,VALID,0.105969,VALID,23.6745,VALID,331,VALID,0.100781,
2008-12-01, 00:22:04,VALID,1010.56,VALID,0,VALID,93.1486,VALID,0.105969,VALID,23.6727,VALID,331,VALID,0.132422,
2008-12-01, 00:23:04,VALID,1010.53,VALID,0,VALID,93.141,VALID,0.105969,VALID,23.6338,VALID,337,VALID,0.335156,
2008-12-01, 00:24:04,VALID,1010.56,VALID,0,VALID,93.1486,VALID,0,VALID,23.6338,VALID,317,VALID,0.306641,
2008-12-01, 00:25:04,VALID,1010.59,VALID,0,VALID,93.1562,VALID,0.105969,VALID,23.6338,VALID,305,VALID,0.743359,
2008-12-01, 00:26:04,VALID,1010.56,VALID,0,VALID,93.1715,VALID,0.105969,VALID,23.6532,VALID,307,VALID,0.683594,
2008-12-01, 00:27:04,VALID,1010.56,VALID,0,VALID,93.2096,VALID,0,VALID,23.6745,VALID,323,VALID,0.426562,
2008-12-01, 00:28:04,VALID,1010.55,VALID,0,VALID,93.1638,VALID,0.105969,VALID,23.6745,VALID,5,VALID,0.589063,
2008-12-01, 00:29:04,VALID,1010.53,VALID,0,VALID,93.0876,VALID,0,VALID,23.6745,VALID,342,VALID,0.437109,
2008-12-01, 00:30:04,VALID,1010.54,VALID,0,VALID,93.1181,VALID,0.105969,VALID,23.6338,VALID,352,VALID,0.316406,
2008-12-01, 00:31:04,VALID,1010.52,VALID,0,VALID,93.1867,VALID,0,VALID,23.6356,VALID,30,VALID,0.260938,
2008-12-01, 00:32:04,VALID,1010.52,VALID,0,VALID,93.2401,VALID,0.105969,VALID,23.6143,VALID,26,VALID,0.304688,
2008-12-01, 00:33:04,VALID,1010.48,VALID,0,VALID,93.2706,VALID,0,VALID,23.5753,VALID,9,VALID,0.258984,
2008-12-01, 00:34:04,VALID,1010.47,VALID,0,VALID,93.3545,VALID,0,VALID,23.5948,VALID,358,VALID,0.273438,
2008-12-01, 00:35:04,VALID,1010.45,VALID,0,VALID,93.4384,VALID,0.105969,VALID,23.6143,VALID,353,VALID,0.136328,
2008-12-01, 00:36:04,VALID,1010.43,VALID,0,VALID,93.4765,VALID,0,VALID,23.5948,VALID,353,VALID,0.0457031,
2008-12-01, 00:37:04,VALID,1010.42,VALID,0,VALID,93.4307,VALID,0,VALID,23.5966,VALID,333,VALID,0.482031,
2008-12-01, 00:38:04,VALID,1010.41,VALID,0,VALID,93.4307,VALID,0,VALID,23.5966,VALID,333,VALID,0,
2008-12-01, 00:39:04,VALID,1010.41,VALID,0,VALID,93.4612,VALID,0.105969,VALID,23.5576,VALID,333,VALID,0,
2008-12-01, 00:40:04,VALID,1010.42,VALID,0,VALID,93.5222,VALID,0,VALID,23.5966,VALID,333,VALID,0,
2008-12-01, 00:41:04,VALID,1010.4,VALID,0,VALID,93.5756,VALID,0.105969,VALID,23.5771,VALID,333,VALID,0,
2008-12-01, 00:42:04,VALID,1010.38,VALID,0,VALID,93.5527,VALID,0.105969,VALID,23.5771,VALID,333,VALID,0.265234,
2008-12-01, 00:43:04,VALID,1010.38,VALID,0,VALID,93.5375,VALID,0,VALID,23.5576,VALID,359,VALID,0.278906,
2008-12-01, 00:44:04,VALID,1010.37,VALID,0,VALID,93.5451,VALID,0,VALID,23.5381,VALID,359,VALID,0.129688,
2008-12-01, 00:45:04,VALID,1010.35,VALID,0,VALID,93.6214,VALID,0,VALID,23.5576,VALID,359,VALID,0.264453,
2008-12-01, 00:46:04,VALID,1010.35,VALID,0,VALID,93.6214,VALID,0,VALID,23.5363,VALID,332,VALID,0.283594,
2008-12-01, 00:47:04,VALID,1010.34,VALID,0,VALID,93.6519,VALID,0,VALID,23.5186,VALID,337,VALID,0.0015625,
2008-12-01, 00:48:04,VALID,1010.35,VALID,0,VALID,93.6595,VALID,0.105969,VALID,23.5381,VALID,337,VALID,0.111719,
2008-12-01, 00:49:04,VALID,1010.34,VALID,0,VALID,93.7129,VALID,0.105969,VALID,23.5186,VALID,337,VALID,0,
2008-12-01, 00:50:04,VALID,1010.34,VALID,0,VALID,93.7663,VALID,0,VALID,23.4797,VALID,337,VALID,0,
2008-12-01, 00:51:04,VALID,1010.38,VALID,0,VALID,93.7968,VALID,0,VALID,23.4797,VALID,337,VALID,0,
2008-12-01, 00:52:04,VALID,1010.35,VALID,0,VALID,93.8578,VALID,0,VALID,23.4584,VALID,337,VALID,0.119922,
2008-12-01, 00:53:04,VALID,1010.34,VALID,0,VALID,93.9035,VALID,0,VALID,23.4602,VALID,337,VALID,0.00351562,
2008-12-01, 00:54:04,VALID,1010.32,VALID,0,VALID,93.9493,VALID,0,VALID,23.4797,VALID,336,VALID,0.00117188,
2008-12-01, 00:55:04,VALID,1010.33,VALID,0,VALID,94.0179,VALID,0.105969,VALID,23.4797,VALID,283,VALID,0.330078,
2008-12-01, 00:56:04,VALID,1010.27,VALID,0,VALID,94.0103,VALID,0,VALID,23.4779,VALID,258,VALID,0.3,
2008-12-01, 00:57:04,VALID,1010.25,VALID,0,VALID,94.0179,VALID,0.105969,VALID,23.5381,VALID,258,VALID,0,
2008-12-01, 00:58:04,VALID,1010.2,VALID,0,VALID,93.9798,VALID,0.105969,VALID,23.5381,VALID,258,VALID,0.0015625,
2008-12-01, 00:59:04,VALID,1010.2,VALID,0,VALID,93.9569,VALID,0,VALID,23.5399,VALID,258,VALID,0.275391,
2008-12-01, 01:00:04,VALID,1010.19,VALID,0,VALID,93.9569,VALID,0,VALID,23.5186,VALID,259,VALID,0.323047,
2008-12-01, 01:01:04,VALID,1010.17,VALID,0,VALID,93.8959,VALID,0,VALID,23.5381,VALID,264,VALID,0.428906,
2008-12-01, 01:02:04,VALID,1010.18,VALID,0,VALID,93.8807,VALID,0,VALID,23.5576,VALID,264,VALID,0.183203,
2008-12-01, 01:03:04,VALID,1010.18,VALID,0,VALID,93.8502,VALID,0.105969,VALID,23.5558,VALID,264,VALID,0.137109,
2008-12-01, 01:04:04,VALID,1010.15,VALID,0,VALID,93.812,VALID,0,VALID,23.5771,VALID,232,VALID,0.171875,
2008-12-01, 01:05:04,VALID,1010.16,VALID,0,VALID,93.7129,VALID,0,VALID,23.5966,VALID,276,VALID,0.247266,
2008-12-01, 01:06:04,VALID,1010.14,VALID,0,VALID,93.6595,VALID,0.105969,VALID,23.6338,VALID,276,VALID,0.0109375,
2008-12-01, 01:07:04,VALID,1010.12,VALID,0,VALID,93.5909,VALID,0,VALID,23.5753,VALID,276,VALID,0.326562,
2008-12-01, 01:08:04,VALID,1010.07,VALID,0,VALID,93.4765,VALID,0,VALID,23.6161,VALID,265,VALID,0.175391,
2008-12-01, 01:09:04,VALID,1010.11,VALID,0,VALID,93.4155,VALID,0,VALID,23.6161,VALID,265,VALID,0.351953,
2008-12-01, 01:10:04,VALID,1010.11,VALID,0,VALID,93.3773,VALID,0,VALID,23.5771,VALID,232,VALID,0.664453,
2008-12-01, 01:11:04,VALID,1010.12,VALID,0,VALID,93.3926,VALID,0,VALID,23.5558,VALID,233,VALID,0.316406,
2008-12-01, 01:12:04,VALID,1010.12,VALID,0,VALID,93.3621,VALID,0,VALID,23.5966,VALID,235,VALID,0.488281,
2008-12-01, 01:13:04,VALID,1010.12,VALID,0,VALID,93.385,VALID,0,VALID,23.6356,VALID,225,VALID,0.147656,
2008-12-01, 01:14:04,VALID,1010.1,VALID,0,VALID,93.4002,VALID,0,VALID,23.5771,VALID,225,VALID,0.172656,
2008-12-01, 01:15:04,VALID,1010.06,VALID,0,VALID,93.3773,VALID,0,VALID,23.5966,VALID,227,VALID,0,
2008-12-01, 01:16:04,VALID,1010.1,VALID,0,VALID,93.3773,VALID,0,VALID,23.5771,VALID,227,VALID,0,
2008-12-01, 01:17:04,VALID,1010.08,VALID,0,VALID,93.4231,VALID,0,VALID,23.5753,VALID,227,VALID,0.16875,
2008-12-01, 01:18:04,VALID,1010.06,VALID,0,VALID,93.3697,VALID,0,VALID,23.5771,VALID,260,VALID,0.273828,
2008-12-01, 01:19:04,VALID,1010.04,VALID,0,VALID,93.3773,VALID,0,VALID,23.5558,VALID,260,VALID,0.1375,
2008-12-01, 01:20:04,VALID,1010.04,VALID,0,VALID,93.3697,VALID,0,VALID,23.5771,VALID,263,VALID,0.205469,
2008-12-01, 01:21:04,VALID,1010,VALID,0,VALID,93.3316,VALID,0,VALID,23.5771,VALID,331,VALID,0.448047,
2008-12-01, 01:22:04,VALID,1009.99,VALID,0,VALID,93.3087,VALID,0,VALID,23.5576,VALID,21,VALID,0.449609,
2008-12-01, 01:23:04,VALID,1009.98,VALID,0,VALID,93.3011,VALID,0,VALID,23.4974,VALID,28,VALID,0.482812,
2008-12-01, 01:24:04,VALID,1009.96,VALID,0,VALID,93.3087,VALID,0,VALID,23.4974,VALID,23,VALID,0.635547,
2008-12-01, 01:25:04,VALID,1009.95,VALID,0,VALID,93.385,VALID,0,VALID,23.4797,VALID,24,VALID,0.351563,
2008-12-01, 01:26:04,VALID,1009.93,VALID,0,VALID,93.507,VALID,0,VALID,23.4389,VALID,47,VALID,0.279687,
2008-12-01, 01:27:04,VALID,1009.95,VALID,0,VALID,93.5832,VALID,0,VALID,23.4407,VALID,50,VALID,0.352344,
2008-12-01, 01:28:04,VALID,1009.94,VALID,0,VALID,93.7053,VALID,0,VALID,23.3805,VALID,50,VALID,0,
2008-12-01, 01:29:04,VALID,1009.95,VALID,0,VALID,93.7815,VALID,0,VALID,23.4212,VALID,50,VALID,0.275391,
2008-12-01, 01:30:04,VALID,1009.97,VALID,0,VALID,93.812,VALID,0,VALID,23.3805,VALID,50,VALID,0.0515625,
2008-12-01, 01:31:04,VALID,1009.98,VALID,0,VALID,93.9112,VALID,0,VALID,23.4017,VALID,50,VALID,0.0175781,
2008-12-01, 01:32:04,VALID,1010.01,VALID,0,VALID,93.9645,VALID,0,VALID,23.3823,VALID,50,VALID,0,
2008-12-01, 01:33:04,VALID,1010.04,VALID,0,VALID,94.056,VALID,0,VALID,23.3823,VALID,50,VALID,0,
2008-12-01, 01:34:04,VALID,1010.06,VALID,0,VALID,94.1018,VALID,0,VALID,23.4017,VALID,50,VALID,0,
2008-12-01, 01:35:04,VALID,1010.1,VALID,0,VALID,94.1476,VALID,0,VALID,23.4017,VALID,50,VALID,0,
2008-12-01, 01:36:04,VALID,1010.13,VALID,0,VALID,94.1857,VALID,0,VALID,23.4017,VALID,50,VALID,0,
2008-12-01, 01:37:04,VALID,1010.16,VALID,0,VALID,94.2009,VALID,0,VALID,23.4017,VALID,50,VALID,0,
2008-12-01, 01:38:04,VALID,1010.18,VALID,0,VALID,94.2314,VALID,0,VALID,23.4017,VALID,50,VALID,0,
2008-12-01, 01:39:04,VALID,1010.14,VALID,0,VALID,94.2696,VALID,0,VALID,23.4407,VALID,50,VALID,0,
2008-12-01, 01:40:04,VALID,1010.17,VALID,0,VALID,94.2696,VALID,0,VALID,23.4212,VALID,50,VALID,0.298438,
2008-12-01, 01:41:04,VALID,1010.15,VALID,0,VALID,94.2619,VALID,0,VALID,23.4212,VALID,50,VALID,0.246094,
2008-12-01, 01:42:04,VALID,1010.1,VALID,0,VALID,94.2467,VALID,0,VALID,23.4407,VALID,50,VALID,0.389453,
2008-12-01, 01:43:04,VALID,1010.11,VALID,0,VALID,94.2543,VALID,0,VALID,23.4407,VALID,50,VALID,0.465234,
2008-12-01, 01:44:04,VALID,1010.06,VALID,0,VALID,94.2467,VALID,0,VALID,23.4194,VALID,50,VALID,0.665625,
2008-12-01, 01:45:04,VALID,1010.07,VALID,0,VALID,94.2009,VALID,0,VALID,23.4,VALID,66,VALID,0.617188,
2008-12-01, 01:46:04,VALID,1010.07,VALID,0,VALID,94.1704,VALID,0,VALID,23.4212,VALID,67,VALID,0.609375,
2008-12-01, 01:47:04,VALID,1010.07,VALID,0,VALID,94.1628,VALID,0,VALID,23.4,VALID,68,VALID,0.518359,
2008-12-01, 01:48:04,VALID,1010.04,VALID,0,VALID,94.1476,VALID,0,VALID,23.3823,VALID,68,VALID,0.2125,
2008-12-01, 01:49:04,VALID,1010.05,VALID,0,VALID,94.1628,VALID,0,VALID,23.4017,VALID,68,VALID,0,
2008-12-01, 01:50:04,VALID,1010.03,VALID,0,VALID,94.1476,VALID,0,VALID,23.4017,VALID,68,VALID,0.0175781,
2008-12-01, 01:51:04,VALID,1010.03,VALID,0,VALID,94.1857,VALID,0,VALID,23.4017,VALID,68,VALID,0.262891,
2008-12-01, 01:52:04,VALID,1010.03,VALID,0,VALID,94.1857,VALID,0,VALID,23.3805,VALID,68,VALID,0.215234,
2008-12-01, 01:53:04,VALID,1010.04,VALID,0,VALID,94.2696,VALID,0,VALID,23.3805,VALID,346,VALID,0.250781,
2008-12-01, 01:54:04,VALID,1010.05,VALID,0,VALID,94.2467,VALID,0,VALID,23.4017,VALID,346,VALID,0.04375,
2008-12-01, 01:55:04,VALID,1010.07,VALID,0,VALID,94.2696,VALID,0,VALID,23.4407,VALID,346,VALID,0,
2008-12-01, 01:56:04,VALID,1010.05,VALID,0,VALID,94.2772,VALID,0,VALID,23.4407,VALID,346,VALID,0,
2008-12-01, 01:57:04,VALID,1010.06,VALID,0,VALID,94.2696,VALID,0,VALID,23.4407,VALID,346,VALID,0,
2008-12-01, 01:58:04,VALID,1010.07,VALID,0,VALID,94.2848,VALID,0,VALID,23.4407,VALID,346,VALID,0,
2008-12-01, 01:59:04,VALID,1010.06,VALID,0,VALID,94.2619,VALID,0,VALID,23.4407,VALID,346,VALID,0,
2008-12-01, 02:00:04,VALID,1010.05,VALID,0,VALID,94.2772,VALID,0,VALID,23.4,VALID,346,VALID,0.0945313,
2008-12-01, 02:01:04,VALID,1010.03,VALID,0,VALID,94.3001,VALID,0,VALID,23.4407,VALID,346,VALID,0.217187,
2008-12-01, 02:02:04,VALID,1009.98,VALID,0,VALID,94.3153,VALID,0,VALID,23.4212,VALID,346,VALID,0.397656,
2008-12-01, 02:03:04,VALID,1009.97,VALID,0,VALID,94.3382,VALID,0,VALID,23.4212,VALID,33,VALID,0.541406,
2008-12-01, 02:04:04,VALID,1009.95,VALID,0,VALID,94.3229,VALID,0,VALID,23.361,VALID,57,VALID,0.539844,
2008-12-01, 02:05:04,VALID,1009.93,VALID,0,VALID,94.3611,VALID,0,VALID,23.3628,VALID,59,VALID,0.554297,
2008-12-01, 02:06:04,VALID,1009.91,VALID,0,VALID,94.3611,VALID,0,VALID,23.3628,VALID,59,VALID,0.509375,
2008-12-01, 02:07:04,VALID,1009.88,VALID,0,VALID,94.3916,VALID,0,VALID,23.3433,VALID,59,VALID,0.301562,
2008-12-01, 02:08:04,VALID,1009.88,VALID,0,VALID,94.4221,VALID,0,VALID,23.3628,VALID,59,VALID,0.3375,
2008-12-01, 02:09:04,VALID,1009.9,VALID,0,VALID,94.4602,VALID,0,VALID,23.3433,VALID,59,VALID,0.266406,
2008-12-01, 02:10:04,VALID,1009.87,VALID,0,VALID,94.506,VALID,0,VALID,23.3238,VALID,59,VALID,0.210156,
2008-12-01, 02:11:04,VALID,1009.85,VALID,0,VALID,94.4983,VALID,0,VALID,23.3433,VALID,92,VALID,0.462109,
2008-12-01, 02:12:04,VALID,1009.85,VALID,0,VALID,94.5212,VALID,0,VALID,23.3433,VALID,84,VALID,0.275,
2008-12-01, 02:13:04,VALID,1009.85,VALID,0,VALID,94.5517,VALID,0,VALID,23.3628,VALID,98,VALID,0.432031,
2008-12-01, 02:14:04,VALID,1009.84,VALID,0,VALID,94.5898,VALID,0,VALID,23.3415,VALID,98,VALID,0.328125,
2008-12-01, 02:15:04,VALID,1009.84,VALID,0,VALID,94.5898,VALID,0,VALID,23.3823,VALID,98,VALID,0.221484,
2008-12-01, 02:16:04,VALID,1009.81,VALID,0,VALID,94.5898,VALID,0,VALID,23.4,VALID,99,VALID,0.374219,
2008-12-01, 02:17:04,VALID,1009.85,VALID,0,VALID,94.6051,VALID,0,VALID,23.3823,VALID,101,VALID,0.253906,
2008-12-01, 02:18:04,VALID,1009.87,VALID,0,VALID,94.6051,VALID,0,VALID,23.3823,VALID,101,VALID,0.229297,
2008-12-01, 02:19:04,VALID,1009.91,VALID,0,VALID,94.5975,VALID,0,VALID,23.3805,VALID,166,VALID,0.490625,
2008-12-01, 02:20:04,VALID,1009.94,VALID,0,VALID,94.6051,VALID,0,VALID,23.4407,VALID,217,VALID,1.18906,
2008-12-01, 02:21:04,VALID,1009.97,VALID,0,VALID,94.5593,VALID,0,VALID,23.4194,VALID,207,VALID,1.12695,
2008-12-01, 02:22:04,VALID,1010.02,VALID,0,VALID,94.5593,VALID,0,VALID,23.4602,VALID,217,VALID,0.758984,
2008-12-01, 02:23:04,VALID,1010.03,VALID,0,VALID,94.5746,VALID,0,VALID,23.4584,VALID,204,VALID,0.849219,
2008-12-01, 02:24:04,VALID,1010.02,VALID,0,VALID,94.5593,VALID,0,VALID,23.4992,VALID,203,VALID,0.754687,
2008-12-01, 02:25:04,VALID,1010.04,VALID,0,VALID,94.5365,VALID,0,VALID,23.5186,VALID,199,VALID,0.986328,
2008-12-01, 02:26:04,VALID,1010.04,VALID,0,VALID,94.4221,VALID,0,VALID,23.5381,VALID,198,VALID,0.907812,
2008-12-01, 02:27:04,VALID,1010.03,VALID,0,VALID,94.2772,VALID,0.105969,VALID,23.5576,VALID,195,VALID,1.11641,
2008-12-01, 02:28:04,VALID,1010.02,VALID,0,VALID,94.056,VALID,0,VALID,23.5948,VALID,154,VALID,0.985937,
2008-12-01, 02:29:04,VALID,1009.99,VALID,0,VALID,93.7968,VALID,0.105969,VALID,23.655,VALID,156,VALID,0.701953,
2008-12-01, 02:30:04,VALID,1010,VALID,0,VALID,93.5527,VALID,0.105969,VALID,23.6532,VALID,174,VALID,1.025,
2008-12-01, 02:31:04,VALID,1010,VALID,0,VALID,93.3392,VALID,0.105969,VALID,23.6338,VALID,160,VALID,1.0082,
2008-12-01, 02:32:04,VALID,1009.99,VALID,0,VALID,93.2248,VALID,0,VALID,23.6532,VALID,177,VALID,1.10352,
2008-12-01, 02:33:04,VALID,1010,VALID,0,VALID,93.202,VALID,0,VALID,23.6532,VALID,185,VALID,0.821484,
2008-12-01, 02:34:04,VALID,1009.97,VALID,0,VALID,93.2553,VALID,0,VALID,23.6745,VALID,195,VALID,0.616797,
2008-12-01, 02:35:04,VALID,1010.02,VALID,0,VALID,93.263,VALID,0,VALID,23.7135,VALID,195,VALID,0.360156,
2008-12-01, 02:36:04,VALID,1010,VALID,0,VALID,93.0799,VALID,0,VALID,23.694,VALID,259,VALID,0.558203,
2008-12-01, 02:37:04,VALID,1009.98,VALID,0,VALID,92.9122,VALID,0,VALID,23.7135,VALID,206,VALID,0.194141,
2008-12-01, 02:38:04,VALID,1009.98,VALID,0,VALID,92.7597,VALID,0,VALID,23.733,VALID,206,VALID,0.241016,
2008-12-01, 02:39:04,VALID,1009.96,VALID,0,VALID,92.5919,VALID,0,VALID,23.7507,VALID,206,VALID,0,
2008-12-01, 02:40:04,VALID,1009.92,VALID,0,VALID,92.5614,VALID,0,VALID,23.772,VALID,206,VALID,0.191016,
2008-12-01, 02:41:04,VALID,1009.88,VALID,0,VALID,92.7673,VALID,0,VALID,23.772,VALID,206,VALID,0.206641,
2008-12-01, 02:42:04,VALID,1009.86,VALID,0,VALID,92.7444,VALID,0,VALID,23.772,VALID,128,VALID,0.485156,
2008-12-01, 02:43:04,VALID,1009.82,VALID,0,VALID,92.63,VALID,0,VALID,23.7914,VALID,128,VALID,0.469141,
2008-12-01, 02:44:04,VALID,1009.82,VALID,0,VALID,92.4699,VALID,0,VALID,23.7701,VALID,114,VALID,0.38125,
2008-12-01, 02:45:04,VALID,1009.77,VALID,0,VALID,92.7292,VALID,0,VALID,23.8109,VALID,48,VALID,0.761719,
2008-12-01, 02:46:04,VALID,1009.73,VALID,0,VALID,92.8436,VALID,0,VALID,23.7914,VALID,45,VALID,0.617578,
2008-12-01, 02:47:04,VALID,1009.69,VALID,0,VALID,92.9808,VALID,0,VALID,23.7312,VALID,41,VALID,0.725,
2008-12-01, 02:48:04,VALID,1009.66,VALID,0,VALID,93.0418,VALID,0,VALID,23.6727,VALID,54,VALID,0.880469,
2008-12-01, 02:49:04,VALID,1009.67,VALID,0,VALID,93.0494,VALID,0,VALID,23.6745,VALID,72,VALID,1.14375,
2008-12-01, 02:50:04,VALID,1009.68,VALID,0,VALID,93.0647,VALID,0,VALID,23.7135,VALID,77,VALID,1.01133,
2008-12-01, 02:51:04,VALID,1009.64,VALID,0,VALID,93.0189,VALID,0,VALID,23.7525,VALID,76,VALID,1.33125,
2008-12-01, 02:52:04,VALID,1009.68,VALID,0,VALID,92.8664,VALID,0,VALID,23.7525,VALID,84,VALID,0.944141,
2008-12-01, 02:53:04,VALID,1009.7,VALID,0,VALID,92.8283,VALID,0,VALID,23.772,VALID,89,VALID,0.796094,
2008-12-01, 02:54:04,VALID,1009.71,VALID,0,VALID,92.7215,VALID,0,VALID,23.7914,VALID,100,VALID,0.803125,
2008-12-01, 02:55:04,VALID,1009.74,VALID,0,VALID,92.6376,VALID,0,VALID,23.772,VALID,109,VALID,0.762109,
2008-12-01, 02:56:04,VALID,1009.74,VALID,0,VALID,92.5843,VALID,0,VALID,23.7914,VALID,112,VALID,0.591016,
2008-12-01, 02:57:04,VALID,1009.74,VALID,0,VALID,92.5614,VALID,0,VALID,23.772,VALID,135,VALID,0.666797,
2008-12-01, 02:58:04,VALID,1009.74,VALID,0,VALID,92.5233,VALID,0,VALID,23.7914,VALID,157,VALID,0.45625,
2008-12-01, 02:59:04,VALID,1009.76,VALID,0,VALID,92.6224,VALID,0.105969,VALID,23.7914,VALID,137,VALID,0.458594,
2008-12-01, 03:00:04,VALID,1009.75,VALID,0,VALID,92.6682,VALID,0,VALID,23.7507,VALID,132,VALID,0,
2008-12-01, 03:01:04,VALID,1009.73,VALID,0,VALID,92.7139,VALID,0,VALID,23.7507,VALID,132,VALID,0.00351562,
2008-12-01, 03:02:04,VALID,1009.69,VALID,0,VALID,92.7444,VALID,0,VALID,23.7312,VALID,132,VALID,0.148047,
2008-12-01, 03:03:04,VALID,1009.68,VALID,0,VALID,92.7215,VALID,0,VALID,23.7312,VALID,132,VALID,0,
2008-12-01, 03:04:04,VALID,1009.67,VALID,0,VALID,92.8054,VALID,0,VALID,23.7312,VALID,132,VALID,0,
2008-12-01, 03:05:04,VALID,1009.66,VALID,0,VALID,92.9579,VALID,0,VALID,23.7135,VALID,132,VALID,0,
2008-12-01, 03:06:04,VALID,1009.69,VALID,0,VALID,93.0113,VALID,0,VALID,23.7312,VALID,132,VALID,0,
2008-12-01, 03:07:04,VALID,1009.65,VALID,0,VALID,93.0723,VALID,0,VALID,23.7117,VALID,132,VALID,0,
2008-12-01, 03:08:04,VALID,1009.69,VALID,0,VALID,93.1943,VALID,0,VALID,23.7117,VALID,132,VALID,0.383203,
2008-12-01, 03:09:04,VALID,1009.69,VALID,0,VALID,93.3773,VALID,0,VALID,23.7312,VALID,138,VALID,0.40625,
2008-12-01, 03:10:04,VALID,1009.69,VALID,0,VALID,93.4231,VALID,0,VALID,23.733,VALID,183,VALID,0.726953,
2008-12-01, 03:11:04,VALID,1009.73,VALID,0,VALID,93.3773,VALID,0,VALID,23.694,VALID,182,VALID,0.935547,
2008-12-01, 03:12:04,VALID,1009.72,VALID,0,VALID,93.3621,VALID,0,VALID,23.694,VALID,170,VALID,0.736719,
2008-12-01, 03:13:04,VALID,1009.72,VALID,0,VALID,93.385,VALID,0,VALID,23.6532,VALID,166,VALID,0.573047,
2008-12-01, 03:14:04,VALID,1009.73,VALID,0,VALID,93.4155,VALID,0,VALID,23.655,VALID,158,VALID,0.501953,
2008-12-01, 03:15:04,VALID,1009.76,VALID,0,VALID,93.4384,VALID,0,VALID,23.6338,VALID,158,VALID,0.297656,
2008-12-01, 03:16:04,VALID,1009.77,VALID,0,VALID,93.4994,VALID,0,VALID,23.6356,VALID,158,VALID,0.00195313,
2008-12-01, 03:17:04,VALID,1009.79,VALID,0,VALID,93.4841,VALID,0,VALID,23.6143,VALID,158,VALID,0.150391,
2008-12-01, 03:18:04,VALID,1009.83,VALID,0,VALID,93.4917,VALID,0,VALID,23.6356,VALID,158,VALID,0,
2008-12-01, 03:19:04,VALID,1009.86,VALID,0,VALID,93.5451,VALID,0,VALID,23.6338,VALID,158,VALID,0,
2008-12-01, 03:20:04,VALID,1009.91,VALID,0,VALID,93.6061,VALID,0,VALID,23.655,VALID,158,VALID,0,
2008-12-01, 03:21:04,VALID,1009.89,VALID,0,VALID,93.6671,VALID,0,VALID,23.6356,VALID,158,VALID,0,
2008-12-01, 03:22:04,VALID,1009.9,VALID,0,VALID,93.6748,VALID,0,VALID,23.6143,VALID,158,VALID,0.115625,
2008-12-01, 03:23:04,VALID,1009.91,VALID,0,VALID,93.7663,VALID,0,VALID,23.6356,VALID,158,VALID,0.288281,
2008-12-01, 03:24:04,VALID,1009.9,VALID,0,VALID,93.8196,VALID,0,VALID,23.6356,VALID,78,VALID,0.328516,
2008-12-01, 03:25:04,VALID,1009.89,VALID,0,VALID,93.8196,VALID,0,VALID,23.6161,VALID,58,VALID,0.510547,
2008-12-01, 03:26:04,VALID,1009.92,VALID,0,VALID,93.8425,VALID,0,VALID,23.5966,VALID,55,VALID,0.436719,
2008-12-01, 03:27:04,VALID,1009.9,VALID,0,VALID,93.8654,VALID,0,VALID,23.5576,VALID,55,VALID,0.365234,
2008-12-01, 03:28:04,VALID,1009.91,VALID,0,VALID,93.9188,VALID,0,VALID,23.5381,VALID,55,VALID,0.364062,
2008-12-01, 03:29:04,VALID,1009.93,VALID,0,VALID,93.9798,VALID,0,VALID,23.4779,VALID,55,VALID,0.215234,
2008-12-01, 03:30:04,VALID,1009.96,VALID,0,VALID,94.0484,VALID,0,VALID,23.4992,VALID,55,VALID,0.0402344,
2008-12-01, 03:31:04,VALID,1009.95,VALID,0,VALID,94.1018,VALID,0,VALID,23.4992,VALID,55,VALID,0.152734,
2008-12-01, 03:32:04,VALID,1009.96,VALID,0,VALID,94.1399,VALID,0,VALID,23.4992,VALID,55,VALID,0,
2008-12-01, 03:33:04,VALID,1009.95,VALID,0,VALID,94.1933,VALID,0,VALID,23.4797,VALID,55,VALID,0.00195313,
2008-12-01, 03:34:04,VALID,1009.93,VALID,0,VALID,94.2162,VALID,0,VALID,23.4797,VALID,55,VALID,0.310937,
2008-12-01, 03:35:04,VALID,1009.92,VALID,0,VALID,94.2009,VALID,0,VALID,23.4584,VALID,49,VALID,0.500781,
2008-12-01, 03:36:04,VALID,1009.92,VALID,0,VALID,94.2391,VALID,0,VALID,23.4194,VALID,32,VALID,0.554688,
2008-12-01, 03:37:04,VALID,1009.92,VALID,0,VALID,94.2848,VALID,0,VALID,23.4212,VALID,23,VALID,0.502344,
2008-12-01, 03:38:04,VALID,1009.95,VALID,0,VALID,94.3229,VALID,0,VALID,23.4407,VALID,14,VALID,0.547266,
2008-12-01, 03:39:04,VALID,1009.95,VALID,0,VALID,94.3687,VALID,0,VALID,23.4017,VALID,14,VALID,0.276953,
2008-12-01, 03:40:04,VALID,1010,VALID,0,VALID,94.4297,VALID,0,VALID,23.4407,VALID,339,VALID,0.383984,
2008-12-01, 03:41:04,VALID,1010,VALID,0,VALID,94.4602,VALID,0,VALID,23.4017,VALID,328,VALID,0.303516,
2008-12-01, 03:42:04,VALID,1010.03,VALID,0,VALID,94.4526,VALID,0,VALID,23.4407,VALID,328,VALID,0.217969,
2008-12-01, 03:43:04,VALID,1010.03,VALID,0,VALID,94.4602,VALID,0,VALID,23.4602,VALID,328,VALID,0.215234,
2008-12-01, 03:44:04,VALID,1010.07,VALID,0,VALID,94.4678,VALID,0,VALID,23.4602,VALID,328,VALID,0,
2008-12-01, 03:45:04,VALID,1010.09,VALID,0,VALID,94.4983,VALID,0,VALID,23.5186,VALID,328,VALID,0,